Simultaneous Nadir Overpasses (SNOs) Predictions

Prediction of SNOs between METOP-A and TERRA Satellite Orbit:

Table of predicted SNOs for the next 14.0 days since TLE Epoch: 5/23/2020
Index Date (METOP-A) Time (METOP-A) Lat,Lon (METOP-A) SZA (METOP-A ) Date (TERRA) Time (TERRA) Lat,Lon (TERRA) SZA (TERRA ) Distance(km) Time Diff (sec)
1 05/23/2020 23:33:37 -81.42, 56.04 116.17 05/23/2020 23:34:12 -81.42, 56.16 116.14 1.96 35
2 05/24/2020 00:24:17 81.41,-136.34 63.86 05/24/2020 00:23:39 81.41,-136.42 63.83 1.24 38
3 05/26/2020 19:07:59 -81.42, 122.44 116.67 05/26/2020 19:08:27 -81.42, 122.51 116.65 1.12 28
4 05/26/2020 19:58:39 81.41, -69.97 63.36 05/26/2020 19:57:54 81.41, -70.10 63.31 2.24 45
5 05/29/2020 14:42:20 -81.42,-171.17 117.13 05/29/2020 14:42:41 -81.41,-171.18 117.12 0.60 21
6 05/29/2020 15:33:00 81.41, -3.60 62.90 05/29/2020 15:32:07 81.42, -3.43 62.90 2.92 53
7 06/01/2020 10:16:42 -81.42,-104.81 117.53 06/01/2020 10:16:56 -81.40,-104.92 117.55 2.46 14
8 06/01/2020 11:07:22 81.41, 62.75 62.49 06/01/2020 11:06:22 81.41, 62.80 62.46 1.01 60
9 06/04/2020 05:51:04 -81.42, -38.45 117.90 06/04/2020 05:51:10 -81.41, -38.32 117.88 2.32 6




NCC Satellite Simultaneous Nadir Overpasses (SNOs) Prediction Service
